This demonstration page uses our WeatherBlox Daily Observations layout. Learn more.

40.92945, -100.16068

Hourly Observations for May 14, 2018

Temp ( °F °C ) Dew Point ( °F °C ) Humidity (%) Winds ( mph kmh ) Pressure ( in mb ) Visibility ( mi km ) Precip ( " mm )
12:15 am 00:15 Cloudy 55 13 53 11.8 92 92 NNE 8 13 29.94 1014 10 16.0934 0 0
12:35 am 00:35 Cloudy 55 13 53 11.8 92 92 N 9 15 29.94 1014 10 16.0934 0 0
12:55 am 00:55 Cloudy 55 13 53 11.8 92 92 N 6 9 29.94 1014 10 16.0934 0 0
1:15 am 01:15 Cloudy with Nearby Thunderstorms 55 13 54 12 94 94 NNE 3 6 30 1016 10 16.0934 0 0
1:35 am 01:35 Cloudy 55 13 54 12 94 94 Calm 30 1016 10 16.0934 0 0
1:55 am 01:55 Cloudy with Light Thunderstorms 55 13 54 12 94 94 NNW 6 9 29.94 1014 7 11.26538 0 0
2:15 am 02:15 Cloudy with Thunderstorms 55 13 54 12.1 94 94 W 6 9 30.03 1017 7 11.26538 0 0
2:35 am 02:35 Cloudy 55 12.8 54 12.1 96 96 N 8 13 30 1016 5 8.0467 0.05 1.27
2:55 am 02:55 Cloudy with Light Thunderstorms 55 12.7 54 12 96 96 NNE 9 15 30 1016 2 3.21868 0.28 7.112
3:15 am 03:15 Cloudy 55 12.7 54 12.1 96 96 N 10 17 30 1016 5 8.0467 0.01 0.254
3:35 am 03:35 Cloudy with Nearby Thunderstorms 55 12.7 54 12.1 96 96 N 9 15 29.97 1015 5 8.0467 0.01 0.254
3:55 am 03:55 Cloudy with Light Rain 55 13 54 12.3 96 96 NNW 8 13 29.94 1014 7 11.26538 0.02 0.508
4:15 am 04:15 Cloudy with Nearby Thunderstorms 55 13 54 12.3 96 96 NNW 6 9 30 1016 10 16.0934 0 0
4:35 am 04:35 Cloudy with Heavy Rain 56 13.1 54 12.3 95 95 NW 9 15 30 1016 7 11.26538 0.04 1.016
4:55 am 04:55 Cloudy with Rain 56 13.1 54 12.3 95 95 N 8 13 30 1016 5 8.0467 0.1 2.54
5:15 am 05:15 Cloudy with Light Rain 55 13 54 12.3 96 96 N 8 13 30 1016 10 16.0934 0 0
5:35 am 05:35 Cloudy with Rain 55 13 54 12.3 96 96 N 9 15 29.94 1014 7 11.26538 0.04 1.016
5:55 am 05:55 Cloudy 55 13 54 12.3 96 96 NNW 13 20 30 1016 5 8.0467 0.14 3.556
6:15 am 06:15 Cloudy with Nearby Thunderstorms 55 13 54 12.3 96 96 NNW 10 17 30 1016 5 8.0467 0.04 1.016
6:35 am 06:35 Cloudy with Rain 55 13 54 12.2 95 95 Calm 30 1016 7 11.26538 0.06 1.524
6:55 am 06:55 Cloudy with Light Rain 55 13 54 12.2 95 95 SE 5 7 29.94 1014 10 16.0934 0.08 2.032
7:15 am 07:15 Cloudy with Light Rain 55 13 54 12.2 95 95 E 9 15 29.91 1013 10 16.0934 0 0
7:35 am 07:35 Cloudy 56 13.1 54 12.4 96 96 ESE 8 13 29.91 1013 10 16.0934 0 0
7:55 am 07:55 Cloudy 56 13.1 55 12.5 96 96 SSE 9 15 29.91 1013 10 16.0934 0 0
8:15 am 08:15 Cloudy 56 13.1 55 12.6 97 97 SSE 10 17 29.94 1014 10 16.0934 0 0
8:35 am 08:35 Cloudy with Light Rain 56 13.3 55 12.8 97 97 WNW 13 20 30.03 1017 10 16.0934 0.01 0.254
8:55 am 08:55 Cloudy 56 13.5 55 13 97 97 N 8 13 29.97 1015 10 16.0934 0.01 0.254
9:15 am 09:15 Cloudy 57 14 56 13.5 97 97 NNW 9 15 29.97 1015 10 16.0934 0 0
9:35 am 09:35 Cloudy 57 14.1 56 13.5 96 96 NW 12 19 29.97 1015 10 16.0934 0 0
9:55 am 09:55 Cloudy 58 14.2 56 13.5 96 96 NNW 9 15 30 1016 10 16.0934 0 0
10:15 am 10:15 Cloudy 58 14.5 56 13.6 94 94 N 8 13 29.97 1015 10 16.0934 0 0
10:35 am 10:35 Cloudy 59 15 56 13.6 91 91 NNE 9 15 29.97 1015 10 16.0934 0 0
10:55 am 10:55 Cloudy 61 16.1 57 14 87 87 NNE 12 19 29.97 1015 10 16.0934 0 0
11:15 am 11:15 Cloudy 61 16 57 13.9 87 87 NE 8 13 30 1016 10 16.0934 0 0
11:35 am 11:35 Cloudy 61 16.1 57 14 87 87 NE 6 9 30 1016 10 16.0934 0 0
11:55 am 11:55 Cloudy 61 16.3 57 14 86 86 N 6 9 30 1016 10 16.0934 0 0
12:15 pm 12:15 Cloudy 63 17.3 58 14.5 84 84 NNE 6 9 29.97 1015 10 16.0934 0 0
12:35 pm 12:35 Mostly Cloudy 64 18 59 14.9 82 82 ENE 5 7 29.97 1015 10 16.0934 0 0
12:55 pm 12:55 Mostly Cloudy 65 18.2 59 14.8 81 81 Calm 29.94 1014 10 16.0934 0 0
1:15 pm 13:15 Cloudy 66 19 59 15 78 78 NW 5 7 29.94 1014 10 16.0934 0 0
1:35 pm 13:35 Cloudy 67 19.4 59 15.1 76 76 WNW 5 7 29.94 1014 10 16.0934 0 0
1:55 pm 13:55 Cloudy 66 19 59 15.1 78 78 WNW 7 11 29.94 1014 10 16.0934 0 0
2:15 pm 14:15 Cloudy 66 19 59 14.9 77 77 NNW 9 15 29.94 1014 10 16.0934 0 0
2:35 pm 14:35 Cloudy 67 19.4 59 15.1 76 76 NW 8 13 29.94 1014 10 16.0934 0 0
2:55 pm 14:55 Cloudy 68 20 59 15.2 74 74 WNW 7 11 29.91 1013 10 16.0934 0 0
3:15 pm 15:15 Mostly Cloudy 68 20.1 59 15 73 73 NNW 8 13 29.88 1012 10 16.0934 0 0
3:35 pm 15:35 Cloudy 68 20.1 59 15 73 73 N 9 15 29.88 1012 10 16.0934 0 0
3:55 pm 15:55 Cloudy 68 19.8 59 15.1 74 74 NW 10 17 29.88 1012 10 16.0934 0 0
4:15 pm 16:15 Cloudy 68 20.2 59 15 72 72 NNW 8 13 29.88 1012 10 16.0934 0 0
4:35 pm 16:35 Cloudy 70 20.9 59 15.2 70 70 N 8 13 29.88 1012 10 16.0934 0 0
4:55 pm 16:55 Cloudy 69 20.5 58 14.7 70 70 N 7 11 29.88 1012 10 16.0934 0 0
5:15 pm 17:15 Cloudy 70 20.9 59 14.8 68 68 NNE 6 9 29.88 1012 10 16.0934 0 0
5:35 pm 17:35 Cloudy 68 20.2 59 14.8 71 71 N 7 11 29.88 1012 10 16.0934 0 0
5:55 pm 17:55 Cloudy with Haze 69 20.4 59 14.9 71 71 NNE 6 9 29.85 1011 2.5 4.02335 0 0
6:15 pm 18:15 Cloudy 69 20.4 59 15.2 72 72 N 7 11 29.85 1011 10 16.0934 0 0
6:35 pm 18:35 Cloudy 69 20.5 59 15 71 71 N 6 9 29.85 1011 10 16.0934 0 0
6:55 pm 18:55 Cloudy 68 20.1 58 14.5 70 70 N 7 11 29.85 1011 10 16.0934 0 0
7:15 pm 19:15 Cloudy 68 20 59 14.8 72 72 N 8 13 29.85 1011 10 16.0934 0 0
7:35 pm 19:35 Partly Cloudy 69 20.6 59 14.8 70 70 N 8 13 29.85 1011 10 16.0934 0 0
7:55 pm 19:55 Partly Cloudy 68 19.9 58 14.3 70 70 NNE 9 15 29.85 1011 10 16.0934 0 0
8:15 pm 20:15 Partly Cloudy 67 19.4 58 14.6 74 74 NNE 6 9 29.85 1011 10 16.0934 0 0
8:35 pm 20:35 Sunny 65 18.4 58 14.3 77 77 NNE 6 9 29.88 1012 10 16.0934 0 0
8:55 pm 20:55 Clear 64 17.7 58 14.3 81 81 NNE 3 6 29.88 1012 10 16.0934 0 0
9:15 pm 21:15 Clear 64 17.6 58 14.5 82 82 Calm 29.91 1013 10 16.0934 0 0
9:35 pm 21:35 Clear 63 17 58 14.7 86 86 Calm 29.91 1013 10 16.0934 0 0
9:55 pm 21:55 Mostly Cloudy 60 15.8 57 14.1 90 90 NW 5 7 29.97 1015 10 16.0934 0 0
10:15 pm 22:15 Mostly Cloudy 61 16.1 58 14.5 90 90 NNW 6 9 29.97 1015 10 16.0934 0 0
10:35 pm 22:35 Partly Cloudy 60 15.6 57 14.1 91 91 NNW 5 7 29.97 1015 10 16.0934 0 0
10:55 pm 22:55 Mostly Cloudy 61 16 58 14.6 91 91 NNW 6 9 29.97 1015 10 16.0934 0 0
11:15 pm 23:15 Cloudy 61 16 58 14.6 91 91 NNW 6 9 30 1016 10 16.0934 0 0
11:35 pm 23:35 Partly Cloudy 60 15.6 58 14.3 92 92 NNW 7 11 29.97 1015 10 16.0934 0 0
11:55 pm 23:55 Clear 59 15.1 57 14 93 93 NNW 8 13 29.97 1015 10 16.0934 0 0

Powered by AerisWeather